Flag for Bulgaria Weather past 2 weeks in Plovdiv, Bulgaria

Now
36 °F

Chilly.


Feels Like: 32 °F
Forecast: 36 / 64 °F
Wind: 5 mph from West

Location: Plovdiv Airport

Current Time: Apr 20, 2015 at 1:59:21 AM

Latest Report: Apr 20, 2015 at 1:30 AM


Visibility: N/A

Pressure: 30.09 "Hg

Humidity: 93%

Dew point: 34 °F

Location of PlovdivLocation

Historic Weather in Plovdiv — Graph

°F

Plovdiv temperature yesterday

Maximum temperature yesterday: 59 °F (at 12:00 AM)
Minimum temperature yesterday: 41 °F (at 11:00 PM)
Average temperature yesterday: 52 °F

Past Weeks' High & Low Weather Summary

 TemperatureHumidityPressure
High81 °F (Apr 17, 4:30 PM)100% (Apr 6, 5:30 AM)30.42 "Hg (Apr 6, 5:30 AM)
Low32 °F (Apr 10, 6:00 AM)10% (Apr 11, 6:00 PM)29.71 "Hg (Apr 6, 6:00 AM)
Average54 °F51%30.06 "Hg
* Reported Midnight between Apr 4 and Apr 5 — Apr 20 12:30 AM, Plovdiv, Weather by CustomWeather, © 2015

Note: Actual official high and low records may vary slightly from our data, if they occured in-between our weather recording intervals... More about our weather records

Advertising

Plovdiv weather history for previous 24 hours

 ConditionsComfort  
Time TempWeatherWind HumidityBarometerVisibility
12:30 AM
Mon, Apr 20
37 °FChilly.6 mph87%30.09 "HgN/A
12:00 AM39 °FPassing clouds.No wind87%30.09 "HgN/A
11:30 PM
Sun, Apr 19
41 °FQuite cool.5 mph81%30.09 "HgN/A
11:00 PM41 °FQuite cool.7 mph81%30.09 "HgN/A
10:30 PM43 °FPassing clouds.6 mph81%30.09 "HgN/A
10:00 PM43 °FQuite cool.6 mph81%30.07 "HgN/A
9:30 PM45 °FQuite cool.10 mph76%30.07 "HgN/A
9:00 PM46 °FCool.12 mph76%30.07 "HgN/A
8:30 PM48 °FCool.14 mph71%30.04 "HgN/A
8:00 PM50 °FCool.12 mph67%30.04 "HgN/A
7:30 PM54 °FPassing clouds.9 mph54%30.01 "HgN/A
7:00 PM54 °FPassing clouds.8 mph51%30.01 "HgN/A
6:30 PM55 °FScattered clouds.8 mph47%30.01 "HgN/A
6:00 PM55 °FRefreshingly cool.7 mph47%30.01 "HgN/A
5:30 PM55 °FPassing clouds.12 mph51%30.01 "HgN/A
5:00 PM54 °FBroken clouds.14 mph54%30.01 "HgN/A
4:30 PM55 °FMostly cloudy.8 mph51%30.04 "HgN/A
4:00 PM57 °FPartly sunny.14 mph39%30.04 "HgN/A
3:30 PM57 °FBroken clouds.12 mph39%30.04 "HgN/A
3:00 PM57 °FOvercast.13 mph39%30.04 "HgN/A
2:30 PM55 °FOvercast.12 mph41%30.04 "HgN/A
2:00 PM55 °FOvercast.14 mph41%30.07 "HgN/A
1:30 PM54 °FOvercast.15 mph44%30.07 "HgN/A
1:00 PM52 °FOvercast.18 mph47%30.07 "HgN/A
12:30 PM52 °FOvercast.17 mph47%30.07 "HgN/A
12:00 PM50 °FOvercast.15 mph50%30.07 "HgN/A
11:30 AM50 °FOvercast.22 mph54%30.07 "HgN/A
11:00 AM48 °FSprinkles. Overcast.20 mph62%30.04 "HgN/A
10:30 AM48 °FSprinkles. Overcast.22 mph58%30.04 "HgN/A
10:00 AM50 °FMostly cloudy.25 mph54%30.04 "HgN/A
9:30 AM50 °FOvercast.24 mph54%30.04 "HgN/A
9:00 AM50 °FOvercast.26 mph50%30.01 "HgN/A
8:30 AM52 °FOvercast.22 mph50%30.01 "HgN/A
8:00 AM52 °FOvercast.22 mph50%29.98 "HgN/A
7:30 AM52 °FOvercast.21 mph54%29.98 "HgN/A
7:00 AM52 °FOvercast.22 mph54%29.95 "HgN/A
6:30 AM52 °FOvercast.24 mph58%29.95 "HgN/A
6:00 AM52 °FOvercast.24 mph58%29.92 "HgN/A
5:30 AM52 °FOvercast.26 mph58%29.92 "HgN/A
5:00 AM54 °FOvercast.26 mph54%29.92 "HgN/A
4:30 AM54 °FOvercast.24 mph54%29.92 "HgN/A
4:00 AM54 °FPartly cloudy.23 mph58%29.92 "HgN/A
3:30 AM54 °FMostly cloudy.22 mph58%29.92 "HgN/A
3:00 AM54 °FPartly cloudy.25 mph63%29.92 "HgN/A
2:00 AM55 °FMostly cloudy.24 mph63%29.89 "HgN/A
1:30 AM54 °FOvercast.28 mph67%29.89 "HgN/A
1:00 AM57 °FMostly cloudy.24 mph59%29.89 "HgN/A
Weather by CustomWeather, © 2015

See weather overviewHow to use our weather pages